Weather History for Rexburg, ID

Change the Weather History Date:

Friday, April 12, 2013

  Actual Average Record
Temperature  
Mean Temperature 41 °F 43 °F  
Max Temperature 53 °F 55 °F 73 °F (2003)
Min Temperature 28 °F 31 °F 21 °F (2008)
Degree Days  
Heating Degree Days 24 22  
Month to date heating degree days 249 282  
Since 1 July heating degree days 6909 7211  
Cooling Degree Days 0 0  
Month to date cooling degree days 0 0  
Year to date cooling degree days 0 0  
Moisture  
Dew Point 20 °F    
Average Humidity 55    
Maximum Humidity 89    
Minimum Humidity 21    
Precipitation  
Precipitation 0.00 in 0.04 in 0.23 in (1982)
Month to date precipitation 0.28 0.53  
Year to date precipitation 2.72 3.16  
Sea Level Pressure  
Sea Level Pressure 29.92 in    
Wind  
Wind Speed 7 mph (SE)    
Max Wind Speed 18 mph    
Max Gust Speed 26 mph    
Visibility 10 miles    
Events      
T = Trace of Precipitation, MM = Missing Value Source: NWS Daily Summary

Daily Weather History Graph

Daily Weather History Graph

Search for Another Location

Airport:

Trip Planner

Search our weather history database for the weather conditions in past years. The results will help you decide how hot, cold, wet, or windy it might be!

Date:

Astronomy

Apr. 12, 2013 Rise Set
Actual Time 6:48 AM MDT 8:07 PM MDT
Civil Twilight 6:19 AM MDT 8:37 PM MDT
Nautical Twilight 5:43 AM MDT 9:13 PM MDT
Astronomical Twilight 5:05 AM MDT 9:51 PM MDT
Moon 7:56 AM MDT (4/12) 10:47 PM MDT (4/12)
Length of Visible Light 14h 18m
Length of Day
13h 18m
Waxing Crescent, 5% of the Moon is Illuminated
Apr 12
Waxing Crescent
Apr 18
First Quarter
Apr 25
Full
May 2
Last Quarter
May 9
New

Hourly Weather History & Observations

Time (MDT) Temp. Windchill Dew Point Humidity Pressure Visibility Wind Dir Wind Speed Gust Speed Precip Events Conditions
12:53 AM 37.0 °F 34.5 °F 28.9 °F 73% 29.91 in 10.0 mi North 3.5 mph - N/A   Clear
1:53 AM 34.0 °F 29.8 °F 30.9 °F 89% 29.93 in 10.0 mi ESE 4.6 mph - N/A   Clear
2:53 AM 33.1 °F 28.7 °F 30.0 °F 89% 29.94 in 10.0 mi NE 4.6 mph - N/A   Clear
3:53 AM 33.1 °F 30.0 °F 28.9 °F 85% 29.96 in 10.0 mi East 3.5 mph - N/A   Clear
4:53 AM 32.0 °F 27.5 °F 25.0 °F 75% 29.96 in 10.0 mi NNE 4.6 mph - N/A   Clear
6:53 AM 28.0 °F 22.8 °F 19.9 °F 72% 30.02 in 10.0 mi ENE 4.6 mph - N/A   Clear
7:53 AM 30.0 °F 25.2 °F 21.0 °F 69% 30.05 in 10.0 mi East 4.6 mph - N/A   Clear
8:53 AM 36.0 °F 32.1 °F 23.0 °F 59% 30.05 in 10.0 mi East 4.6 mph - N/A   Clear
9:53 AM 39.0 °F 34.8 °F 19.9 °F 46% 30.03 in 10.0 mi NE 5.8 mph - N/A   Clear
10:53 AM 42.1 °F 39.2 °F 19.0 °F 40% 30.04 in 10.0 mi Variable 4.6 mph - N/A   Clear
11:53 AM 44.1 °F 41.5 °F 17.1 °F 34% 30.03 in 10.0 mi East 4.6 mph - N/A   Clear
12:53 PM 45.0 °F 43.5 °F 17.1 °F 33% 30.02 in 10.0 mi Variable 3.5 mph - N/A   Clear
1:53 PM 48.9 °F - 18.0 °F 29% 29.98 in 10.0 mi SSE 4.6 mph - N/A   Clear
2:53 PM 50.0 °F - 16.0 °F 26% 29.96 in 10.0 mi SSW 8.1 mph - N/A   Clear
3:53 PM 51.1 °F - 16.0 °F 25% 29.92 in 10.0 mi WSW 5.8 mph - N/A   Clear
4:53 PM 51.1 °F - 17.1 °F 26% 29.89 in 10.0 mi SSW 12.7 mph 20.7 mph N/A   Clear
5:53 PM 52.0 °F - 14.0 °F 22% 29.87 in 10.0 mi SW 13.8 mph 20.7 mph N/A   Clear
6:53 PM 52.0 °F - 17.1 °F 25% 29.85 in 10.0 mi SSW 13.8 mph - N/A   Clear
7:53 PM 50.0 °F - 12.0 °F 22% 29.82 in 10.0 mi SSW 9.2 mph - N/A   Clear
8:53 PM 46.9 °F - 16.0 °F 29% 29.80 in 10.0 mi South 8.1 mph - N/A   Clear
9:53 PM 46.0 °F 41.0 °F 18.0 °F 33% 29.78 in 10.0 mi South 10.4 mph - N/A   Clear
10:53 PM 46.0 °F 41.9 °F 21.0 °F 37% 29.75 in 10.0 mi South 8.1 mph - N/A   Clear
11:53 PM 46.9 °F - 23.0 °F 39% 29.71 in 10.0 mi South 15.0 mph 21.9 mph N/A   Mostly Cloudy